[[{"header":{"parameterUnit":"m.s-1","parameterCategory":1,"la1":30.2991,"la2":30.254,"lo1":-89.0895,"lo2":-89.0444,"dy":0.0017,"dx":0.0017,"nx":28,"ny":28,"refTime":"2024-08-01T09:00:00:Z","depth":0,"parameterNumber":2,"parameterNumberName":"U-component_of_WINDS"},"data":[0,0,0,0,0,0,0,0,0,0,0,0,0,0,0,0,0,0,0,0,0,0,0,0,0,0,0,0,0,0,0,0,0,0,0,0,0,0,0,0,0,0,0,0,0,0,0,0,0,0,0,0,0,0,0,0,0,0,0.1441,0.1442,0,0.1554,0.1555,0.1556,0.161,0.161,0.161,0.161,0.1727,0.173,0.1733,0,0,0,0,0,0,0,0,0,0,0,0,0,0.1272,0.1275,0.1441,0.1442,0.1444,0.1553,0.1555,0.1557,0.161,0.161,0.161,0.161,0.1726,0.1729,0.1733,0,0,0,0,0,0,0,0,0,0,0,0,0,0.1361,0.1276,0.1441,0.1484,0.1489,0.1553,0.1555,0.1557,0.161,0.161,0.161,0.161,0.1724,0.1729,0.1734,0.1764,0,0,0.1748,0.175,0,0,0,0,0,0,0,0,0.1356,0.1367,0.1476,0.1481,0.1487,0.1568,0.1538,0.1627,0.161,0.1564,0.161,0.161,0.1674,0.1683,0.1704,0.177,0.1775,0.1749,0.1751,0.1753,0.1755,0,0,0,0,0,0,0,0.135,0.1363,0.1486,0.1478,0.1484,0.1497,0.151,0.1555,0.1618,0.1568,0.1572,0.1585,0.1677,0.1699,0.1707,0.1777,0.1748,0.1753,0.1756,0.1757,0.187,0.1871,0,0,0,0,0,0,0.1336,0.1357,0.1482,0.1489,0.142,0.15,0.1514,0.1542,0.1618,0.1629,0.1585,0.1587,0.1691,0.1702,0.1712,0.1751,0.1753,0.1758,0.1761,0.187,0.187,0.1871,0,0,0,0,0,0,0.1333,0.1347,0.1478,0.1424,0.1442,0.1503,0.1534,0.1544,0.1567,0.163,0.1642,0.1596,0.1692,0.1705,0.175,0.1756,0.176,0.1764,0.187,0.187,0.1871,0.1831,0,0,0,0,0,0,0.1328,0.1345,0.1358,0.1424,0.1444,0.1514,0.1534,0.1546,0.1575,0.1578,0.1644,0.1655,0.1693,0.1743,0.1755,0.1763,0.1768,0.187,0.187,0.187,0.1832,0.183,0.1828,0,0,0,0,0,0.1321,0.1343,0.1358,0.1373,0.1462,0.1515,0.1526,0.1569,0.1575,0.1588,0.1628,0.1653,0.1753,0.1747,0.1761,0.177,0.187,0.187,0.187,0.1833,0.183,0.1828,0,0,0,0,0,0,0.1278,0.1353,0.1371,0.1415,0.1458,0.1524,0.1542,0.1565,0.1608,0.161,0.1661,0.1675,0.1715,0.1747,0.1739,0.1803,0.1814,0.1817,0.178,0.1778,0.1776,0.1768,0.1772,0,0,0,0,0,0.1273,0.131,0.1374,0.1406,0.1427,0.148,0.1505,0.1533,0.158,0.1599,0.1643,0.1688,0.1729,0.1755,0.1797,0.1837,0.1851,0.185,0.1847,0.1845,0.1848,0.1869,0.1869,0.1872,0.1872,0.1872,0,0,0.1264,0.131,0.133,0.1399,0.1435,0.1472,0.1495,0.1534,0.1561,0.1605,0.165,0.1683,0.1737,0.1778,0.1799,0.1806,0.185,0.1846,0.1844,0.1848,0.1869,0.1869,0.1869,0.1872,0.1872,0.1872,0,0,0.1267,0.1305,0.1336,0.1371,0.1426,0.1461,0.1468,0.153,0.1553,0.1599,0.1632,0.1665,0.1736,0.1772,0.1799,0.1811,0.1835,0.1823,0.1813,0.1833,0.1833,0.1833,0.1836,0.1837,0.1825,0.1825,0.1825,0,0.1249,0.1306,0.1349,0.1384,0.1413,0.1453,0.1483,0.1516,0.1582,0.16,0.1607,0.1695,0.1734,0.1783,0.1786,0.1807,0.1816,0.1817,0.1829,0.183,0.183,0.1834,0.1835,0.1823,0.1824,0.1824,0.1824,0,0.128,0.1319,0.1337,0.1398,0.1428,0.1461,0.1508,0.1534,0.1559,0.1592,0.1637,0.1684,0.1735,0.1749,0.1775,0.1802,0.1804,0.1819,0.1832,0.1827,0.1832,0.1833,0.1821,0.1821,0.1822,0.1822,0,0,0.1261,0.1343,0.1349,0.1376,0.1438,0.1468,0.1502,0.1551,0.1571,0.1614,0.1643,0.17,0.1713,0.1744,0.1774,0.1791,0.1796,0.1804,0.1806,0.18,0.1827,0.1815,0.1816,0.1812,0.1812,0.1813,0.1822,0,0.1272,0.1335,0.1373,0.142,0.1455,0.1491,0.1521,0.1561,0.1592,0.1626,0.1661,0.17,0.1716,0.1734,0.1753,0.1791,0.1802,0.1791,0.1839,0.184,0.1824,0.1818,0.1807,0.1813,0.1824,0.1824,0.1825,0,0.1294,0.1334,0.1384,0.1439,0.1455,0.1481,0.1527,0.1559,0.1605,0.1627,0.1659,0.1688,0.1724,0.1732,0.1782,0.1774,0.1795,0.1816,0.1818,0.1824,0.1832,0.1824,0.1817,0.1818,0.1828,0.1828,0.1827,0,0.1274,0.1341,0.1379,0.1401,0.1467,0.1483,0.1511,0.1557,0.1583,0.1623,0.164,0.1684,0.1708,0.1741,0.1781,0.1783,0.1826,0.1838,0.1844,0.1843,0.1853,0.1852,0.1848,0.1866,0.1866,0.1866,0.1866,0,0.1282,0.1311,0.137,0.1394,0.1426,0.1469,0.15,0.1531,0.1571,0.16,0.1635,0.1661,0.1712,0.1745,0.1776,0.1811,0.1822,0.184,0.1848,0.1837,0.1834,0.1852,0.1852,0.1866,0.1866,0.1866,0.1866,0,0.1266,0.1307,0.135,0.1408,0.1423,0.1444,0.1493,0.1517,0.1549,0.1585,0.1596,0.1647,0.1686,0.1729,0.1784,0.1804,0.1838,0.1849,0.1822,0.1827,0.183,0.1829,0.1838,0.1841,0.1857,0.1857,0.1856,0,0.1269,0.1292,0.1351,0.1372,0.1399,0.1434,0.146,0.1502,0.1527,0.1579,0.1596,0.1638,0.1674,0.1735,0.1777,0.1818,0.1831,0.1831,0.1837,0.1824,0.183,0.1828,0.1829,0.1829,0.1829,0.1828,0.1828,0,0.1269,0.1287,0.1323,0.1365,0.1395,0.143,0.1467,0.1482,0.1532,0.1558,0.1599,0.1626,0.168,0.1721,0.1767,0.1795,0.1819,0.1825,0.1829,0.1818,0.1801,0.1809,0.1816,0.1825,0.1826,0.1826,0.1826,0.1826,0.1263,0.1283,0.1327,0.1365,0.1397,0.1429,0.1454,0.1487,0.1522,0.1569,0.1591,0.1631,0.1674,0.1737,0.1764,0.1796,0.1803,0.1809,0.181,0.1811,0.1807,0.1795,0.1804,0.1804,0.1805,0.1805,0.1805,0,0.1264,0.1293,0.1328,0.1377,0.1406,0.1425,0.1465,0.1488,0.1523,0.156,0.1594,0.1639,0.1678,0.1721,0.1762,0.1779,0.179,0.1788,0.1787,0.1793,0.1799,0.1791,0.1777,0.1777,0.1777,0.1777,0.1777,0.1777,0.1268,0.1304,0.1327,0.1378,0.1407,0.1446,0.1467,0.1496,0.1526,0.1575,0.1607,0.1634,0.1673,0.1717,0.1753,0.1764,0.1777,0.1772,0.1786,0.1791,0.1793,0.1795,0.1788,0.1774,0.1774,0.1778,0.1778,0.1778]},{"header":{"parameterUnit":"m.s-1","parameterCategory":1,"la1":30.2991,"la2":30.254,"lo1":-89.0895,"lo2":-89.0444,"dy":0.0017,"dx":0.0017,"nx":28,"ny":28,"refTime":"2024-08-01T09:00:00:Z","depth":0,"parameterNumber":3,"parameterNumberName":"V-component_of_WINDS"},"data":[0,0,0,0,0,0,0,0,0,0,0,0,0,0,0,0,0,0,0,0,0,0,0,0,0,0,0,0,0,0,0,0,0,0,0,0,0,0,0,0,0,0,0,0,0,0,0,0,0,0,0,0,0,0,0,0,0,0,4.2582,4.2581,0,4.2547,4.2546,4.2546,4.257,4.2571,4.2572,4.2574,4.2531,4.2529,4.2527,0,0,0,0,0,0,0,0,0,0,0,0,0,4.2664,4.2662,4.2582,4.2581,4.2581,4.2547,4.2546,4.2546,4.257,4.2571,4.2573,4.2574,4.2532,4.2529,4.2526,0,0,0,0,0,0,0,0,0,0,0,0,0,4.2628,4.2662,4.2582,4.2589,4.2589,4.2547,4.2546,4.2545,4.257,4.2571,4.2573,4.2575,4.2532,4.2529,4.2526,4.2472,0,0,4.2516,4.2515,0,0,0,0,0,0,0,0,4.263,4.2625,4.2588,4.2588,4.2589,4.2565,4.256,4.2521,4.2569,4.2577,4.2574,4.2576,4.254,4.2537,4.2526,4.247,4.2468,4.2516,4.2514,4.2512,4.2512,0,0,0,0,0,0,0,4.2633,4.2627,4.2568,4.2588,4.2588,4.2592,4.2589,4.2552,4.2549,4.2576,4.2578,4.2574,4.2541,4.2529,4.2525,4.2468,4.2516,4.2513,4.2511,4.251,4.2365,4.2363,0,0,0,0,0,0,4.2635,4.2629,4.2569,4.2567,4.2614,4.2589,4.2586,4.2571,4.255,4.2549,4.2573,4.2575,4.2534,4.2529,4.2524,4.2459,4.2512,4.2509,4.2508,4.2367,4.2365,4.2363,0,0,0,0,0,0,4.2637,4.263,4.257,4.2598,4.2591,4.2586,4.2569,4.2569,4.2558,4.2547,4.2546,4.2562,4.2535,4.2528,4.2485,4.2458,4.2508,4.2505,4.2369,4.2366,4.2364,4.2328,0,0,0,0,0,0,4.2639,4.263,4.2611,4.2598,4.2589,4.2534,4.2567,4.2567,4.2553,4.2556,4.2537,4.2535,4.2536,4.249,4.2482,4.2454,4.2502,4.2372,4.2368,4.2365,4.2332,4.2325,4.2319,0,0,0,0,0,4.2642,4.2601,4.261,4.2603,4.2566,4.2532,4.2527,4.2531,4.255,4.253,4.2523,4.2536,4.2462,4.2485,4.2476,4.2447,4.2373,4.2369,4.2365,4.2335,4.2326,4.2319,0,0,0,0,0,0,4.2609,4.26,4.2609,4.2563,4.2549,4.2536,4.2511,4.2521,4.2499,4.2503,4.2506,4.2502,4.2456,4.2448,4.2473,4.2394,4.2421,4.2414,4.2401,4.2392,4.2386,4.2388,4.25,0,0,0,0,0,4.2597,4.2573,4.2565,4.2525,4.2517,4.2515,4.2501,4.2505,4.2489,4.2483,4.2473,4.2455,4.2428,4.241,4.2385,4.2331,4.2327,4.2307,4.23,4.2295,4.2289,4.2259,4.2249,4.2349,4.2349,4.2349,0,0,4.257,4.2562,4.2546,4.2518,4.2507,4.248,4.251,4.248,4.2459,4.2477,4.2436,4.2429,4.2409,4.236,4.2338,4.2351,4.226,4.2289,4.2285,4.2282,4.2253,4.2244,4.2236,4.2346,4.2347,4.2347,0,0,4.2508,4.25,4.2466,4.2455,4.2439,4.2439,4.243,4.2417,4.2413,4.2373,4.2386,4.236,4.2314,4.2299,4.2286,4.2219,4.2228,4.221,4.2174,4.2145,4.2137,4.213,4.2105,4.2096,4.2205,4.2205,4.2205,0,4.2476,4.2438,4.2446,4.2415,4.2402,4.242,4.2384,4.2372,4.2348,4.2337,4.2353,4.2296,4.2284,4.2232,4.2215,4.2204,4.2193,4.2212,4.2138,4.2131,4.2125,4.2101,4.2091,4.2202,4.2203,4.2203,4.2203,0,4.2399,4.2372,4.2346,4.2325,4.2308,4.2275,4.2276,4.2258,4.2264,4.2261,4.2219,4.2206,4.2178,4.2166,4.2171,4.2114,4.2123,4.2138,4.2165,4.2113,4.209,4.2081,4.2199,4.22,4.2201,4.2201,0,0,4.2313,4.2298,4.2288,4.2279,4.2263,4.2241,4.2208,4.2183,4.2167,4.215,4.2121,4.2082,4.2097,4.2081,4.2084,4.2059,4.2005,4.2078,4.2077,4.2063,4.1941,4.1928,4.1917,4.2013,4.2011,4.201,4.1942,0,4.2249,4.2194,4.2201,4.2147,4.2121,4.2138,4.2109,4.2096,4.2092,4.2068,4.2064,4.2035,4.2058,4.2048,4.2024,4.2017,4.1981,4.2022,4.1984,4.1982,4.1986,4.1906,4.1892,4.1829,4.1933,4.1932,4.1931,0,4.2166,4.2149,4.2093,4.2082,4.2071,4.2045,4.2023,4.2,4.1985,4.1984,4.1967,4.1975,4.194,4.1969,4.192,4.1948,4.1933,4.1927,4.1924,4.1919,4.1952,4.1897,4.1809,4.1798,4.1917,4.1918,4.1919,0,4.2108,4.207,4.2031,4.2023,4.2009,4.199,4.1983,4.1969,4.1954,4.1933,4.1923,4.1898,4.1884,4.1864,4.1864,4.1886,4.1813,4.1843,4.1809,4.1809,4.1792,4.1793,4.1698,4.1785,4.1785,4.1785,4.1785,0,4.2034,4.1999,4.2005,4.1981,4.1942,4.1949,4.1909,4.1904,4.1892,4.1866,4.1879,4.1854,4.1857,4.1831,4.1831,4.1789,4.1783,4.1779,4.1779,4.1777,4.1778,4.1766,4.177,4.1783,4.1783,4.1784,4.1784,0,4.1961,4.1964,4.1923,4.1914,4.1911,4.1882,4.1873,4.185,4.1848,4.1815,4.1808,4.1804,4.1774,4.1774,4.1739,4.1739,4.1687,4.1693,4.1693,4.1693,4.166,4.1662,4.1553,4.1539,4.1636,4.1635,4.1634,0,4.1913,4.1887,4.1876,4.186,4.1853,4.1828,4.1813,4.1819,4.1802,4.1783,4.1761,4.1733,4.1711,4.1663,4.1655,4.1629,4.1633,4.1597,4.1629,4.1627,4.163,4.1631,4.1628,4.1589,4.1588,4.1588,4.1587,0,4.1827,4.1831,4.181,4.1789,4.1771,4.1754,4.1739,4.1725,4.173,4.171,4.1681,4.1664,4.163,4.1601,4.1576,4.1566,4.1576,4.1577,4.1568,4.1564,4.1565,4.1563,4.1674,4.1579,4.158,4.158,4.1581,4.1581,4.1764,4.1742,4.1731,4.1706,4.1696,4.1682,4.166,4.1656,4.1633,4.1607,4.1612,4.1579,4.1563,4.153,4.1519,4.1492,4.1504,4.1491,4.1487,4.1483,4.1479,4.1571,4.1487,4.1487,4.1488,4.1488,4.1488,0,4.1678,4.1673,4.1651,4.163,4.161,4.1625,4.1609,4.1591,4.1563,4.1549,4.1528,4.1494,4.1466,4.1458,4.1431,4.1411,4.1415,4.1403,4.1404,4.1401,4.147,4.1481,4.1401,4.1401,4.1401,4.1401,4.1401,4.1401,4.1631,4.1593,4.1595,4.1552,4.1546,4.1516,4.1505,4.1491,4.148,4.1442,4.1421,4.1416,4.1404,4.1376,4.1351,4.1349,4.1338,4.1324,4.1324,4.1388,4.1397,4.1405,4.1414,4.1322,4.1322,4.1257,4.1256,4.1256]}]]